SL-14 DEB

Satellite information

Favourite Embed

Satellite Type and Status

DEBRISIN ORBIT

Key statistics

Satellite SL-14 DEB at a glance.

Uptime

12501

Days in orbit

Revolutions

≈ 12.7

Per day

Orbit

LEO

Low Earth Orbit

Inclination

82.7

Latest

Satellite identification and parameters

Extended collection of information and parameters for SL-14 DEB.

Object identification

Identified? True

Debris? True

Object name: SL-14 DEB

International designator: 1991-068AU

Object number (NORAD): 26030

Object ID (CCSDS): 26030

Country: COMMONWEALTH OF INDEPENDENT STATES (CIS)

Current information (Y/N): Y

RCS size: SMALL

Orbital parameters

Period: 113.625 minutes

Inclination: 82.6765 deg

SMA: 7770.988 km

Apoapsis: 1457.484 km

Periapsis: 1328.221 km

RAAN: 152.6639 deg

Eccentricy: 0.00831703

Argument of periapsis: 332.9984 deg

Mean anomaly: 214.2604 deg

Mean motion: 12.67326258 rev/day

Mean motion (dot): 0.00000177 rev/day2

B* drag term: 0.00086058829 1/REarth

Two-line elements (TLE)

Creation date: Dec. 18, 2025, 11:20 a.m.

Reference frame: TEME

Reference center: EARTH

Epoch: Dec. 18, 2025, 5 a.m. UTC

TLE line 0: 0 SL-14 DEB

TLE line 1: 1 26030U 91068AU 25352.20863201 .00000177 00000-0 86059-3 0 9990

TLE line 2: 2 26030 82.6765 152.6639 0083170 332.9984 214.2604 12.67326258569681

Live tracking on map

Real-time ground track for satellite SL-14 DEB.

In-orbit conjunctions

A list of the most updated potential collisions computed for object SL-14 DEB.

Target Orbit TCA Probability of collision Miss distance Type
COSMOS 1931 LEO 2025-10-12 12:34:29 0.0001233017 291.0 (m) PAYLOAD

Associated space launch

Second generation store-dump military communications satellite

SL-14 DEB was lifted into orbit during the mission ‘Tsiklon-3 | Strela-3 67 to 72’, on board a Tsiklon-3 space rocket.

The launch took place on Sept. 28, 1991, 7:05 a.m. from 32/2.

For more information about the launch, click the button.

Launch to space Tsiklon-3 | Strela-3 67 to 72
Tsiklon-3 | Strela-3 67 to 72

Agency: N/A

Status: Launch Successful

Launch date: Sept. 28, 1991, 7:05 a.m. UTC

Rocket: Tsiklon-3

Launch pad: 32/2

Location: Plesetsk Cosmodrome, Russian Federation

...

Latest news about this satellite

There are no fresh news available about this satellite. Check back as we update our databases every day.


Newsletter sign-up

Weekly statistics, charts and insights to help you stay on top of the space industry.